Montoursville, PA

9:29 AM EST on December 04, 2016 (GMT -0500)
Williamsport Rgnl

Weather History for KIPT - April, 2014

Change the Weather History Date:

Sunday, April 20, 2014

  Actual Average Record
Temperature  
Mean Temperature 49 °F 52 °F  
Max Temperature 66 °F 63 °F 85 °F (1976)
Min Temperature 32 °F 40 °F 19 °F (1897)
Degree Days  
Heating Degree Days 16 14  
Month to date heating degree days 342 340  
Since 1 July heating degree days 6174 5636  
Cooling Degree Days 0 0  
Month to date cooling degree days 9 0  
Year to date cooling degree days 9 0  
Moisture  
Dew Point 30 °F    
Average Humidity 52    
Maximum Humidity 76    
Minimum Humidity 28    
Precipitation  
Precipitation 0.00 in 0.10 in 2.69 in (1901)
Month to date precipitation 1.92 2.18  
Year to date precipitation 8.61 10.19  
Snow  
Snow 0.00 in 0.00 in 0.80 in (1983)
Month to date snowfall T 1.0  
Since 1 July snowfall 45.9 35.9  
Snow Depth 0.00 in    
Sea Level Pressure  
Sea Level Pressure 30.37 in    
Wind  
Wind Speed 6 mph (South)    
Max Wind Speed 21 mph    
Max Gust Speed 29 mph    
Visibility 10 miles    
Events      
T = Trace of Precipitation, MM = Missing Value Source: NWS Daily Summary

Daily Weather History Graph

Daily Weather History Graph

Search for Another Location

Airport or City:

Trip Planner

Search our weather history database for the weather conditions in past years. The results will help you decide how hot, cold, wet, or windy it might be!

Date:

Astronomy

Apr. 20, 2014 Rise Set
Actual Time 6:20 AM EDT 7:53 PM EDT
Civil Twilight 5:51 AM EDT 8:22 PM EDT
Nautical Twilight 5:16 AM EDT 8:57 PM EDT
Astronomical Twilight 4:39 AM EDT 9:34 PM EDT
Moon 12:32 AM EDT (4/20) 10:37 AM EDT (4/20)
Length of Visible Light 14h 30m
Length of Day
13h 32m
Waning Gibbous, 69% of the Moon is Illuminated
Apr 20
Waning Gibbous
Apr 22
Last Quarter
Apr 29
New
May 6
First Quarter
May 14
Full

Hourly Weather History & Observations

Time (EDT) Temp. Windchill Dew Point Humidity Pressure Visibility Wind Dir Wind Speed Gust Speed Precip Events Conditions
12:54 AM 43.0 °F - 28.9 °F 58% 30.40 in 10.0 mi Calm Calm - N/A   Clear
1:54 AM 39.9 °F 37.8 °F 30.0 °F 68% 30.39 in 10.0 mi WNW 3.5 mph - N/A   Clear
2:54 AM 37.9 °F - 30.0 °F 73% 30.40 in 10.0 mi Calm Calm - N/A   Clear
3:54 AM 37.0 °F - 28.0 °F 70% 30.41 in 10.0 mi Calm Calm - N/A   Clear
4:54 AM 35.1 °F 32.2 °F 28.0 °F 76% 30.42 in 10.0 mi WNW 3.5 mph - N/A   Clear
5:54 AM 33.1 °F 30.0 °F 27.0 °F 78% 30.44 in 10.0 mi WNW 3.5 mph - N/A   Clear
6:54 AM 33.1 °F 30.0 °F 27.0 °F 78% 30.46 in 10.0 mi NW 3.5 mph - N/A   Clear
7:54 AM 37.9 °F - 30.0 °F 73% 30.46 in 10.0 mi Calm Calm - N/A   Clear
8:54 AM 44.1 °F - 30.0 °F 58% 30.45 in 10.0 mi Calm Calm - N/A   Clear
9:54 AM 48.9 °F - 30.0 °F 48% 30.44 in 10.0 mi Calm Calm - N/A   Clear
10:54 AM 55.0 °F - 30.0 °F 38% 30.43 in 10.0 mi East 5.8 mph - N/A   Clear
11:54 AM 57.9 °F - 30.9 °F 36% 30.41 in 10.0 mi Variable 4.6 mph - N/A   Clear
12:54 PM 61.0 °F - 30.9 °F 32% 30.39 in 10.0 mi South 10.4 mph 16.1 mph N/A   Clear
1:54 PM 62.1 °F - 30.0 °F 30% 30.37 in 10.0 mi South 6.9 mph - N/A   Clear
2:54 PM 64.9 °F - 30.9 °F 28% 30.34 in 10.0 mi SE 9.2 mph - N/A   Clear
3:54 PM 64.9 °F - 30.9 °F 28% 30.32 in 10.0 mi SE 9.2 mph - N/A   Clear
4:54 PM 64.9 °F - 30.9 °F 28% 30.30 in 10.0 mi Calm Calm - N/A   Clear
5:54 PM 64.9 °F - 32.0 °F 29% 30.29 in 10.0 mi South 4.6 mph - N/A   Clear
6:54 PM 62.6 °F - 32.0 °F 32% 30.27 in 10.0 mi Variable 5.8 mph - N/A   Clear
7:54 PM 62.1 °F - 32.0 °F 32% 30.27 in 10.0 mi Variable 4.6 mph 16.1 mph N/A   Clear
8:54 PM 60.1 °F - 32.0 °F 35% 30.27 in 10.0 mi South 12.7 mph - N/A   Clear
9:54 PM 57.9 °F - 30.9 °F 36% 30.27 in 10.0 mi South 18.4 mph 26.5 mph N/A   Clear
10:54 PM 55.9 °F - 30.9 °F 39% 30.27 in 10.0 mi South 16.1 mph 23.0 mph N/A   Clear
11:54 PM 54.0 °F - 30.9 °F 41% 30.26 in 10.0 mi South 17.3 mph 23.0 mph N/A   Clear